When you browse on this site, cookies collect data to enhance your experience and personalize the content and advertising you see.
Visit our Privacy Policy to learn more. By continuing to use the site, you agree to this use of cookies and data.
  • In Hungary
  • List of Countries
  • For 7 days
  • Water Temperature
  • Satellite Maps
  • Weather Map
  • News
  • Weather Widgets
  • user-avatar
    Login

    Hourly Weather Warwick

    Today, 24 February, Sunday

    Time Temperature Precipitation Wind Pressure Humidity
    00:00 +9°C° 0 mm 1 mps 770 mmHg 94%
    01:00 +8°C° 0 mm 1 mps 770 mmHg 94%
    02:00 +8°C° 0 mm 1 mps 770 mmHg 94%
    03:00 +7°C° 0 mm 1 mps 770 mmHg 94%
    04:00 +7°C° 0 mm 1 mps 770 mmHg 93%
    05:00 +7°C° 0 mm 1 mps 770 mmHg 92%
    06:00 +7°C° 0 mm 1 mps 770 mmHg 92%
    07:00 +8°C° 0 mm 1 mps 771 mmHg 89%
    08:00 +7°C° 0 mm 2 mps 771 mmHg 86%
    09:00 +8°C° 0 mm 2 mps 771 mmHg 83%
    10:00 +10°C° 0 mm 2 mps 771 mmHg 77%
    11:00 +12°C° 0 mm 2 mps 771 mmHg 72%
    12:00 +14°C° 0 mm 2 mps 772 mmHg 66%
    13:00 +14°C° 0 mm 2 mps 771 mmHg 65%
    14:00 +15°C° 0 mm 2 mps 771 mmHg 64%
    15:00 +15°C° 0 mm 2 mps 771 mmHg 63%
    16:00 +13°C° 0 mm 2 mps 771 mmHg 68%
    17:00 +12°C° 0 mm 2 mps 771 mmHg 73%
    18:00 +9°C° 0 mm 2 mps 771 mmHg 79%
    19:00 +8°C° 0 mm 2 mps 772 mmHg 78%
    20:00 +8°C° 0 mm 2 mps 772 mmHg 78%
    21:00 +7°C° 0 mm 2 mps 772 mmHg 78%
    22:00 +6°C° 0 mm 2 mps 772 mmHg 76%
    23:00 +6°C° 0 mm 2 mps 772 mmHg 74%

    Tomorrow, 25 February, Monday

    Time Temperature Precipitation Wind Pressure Humidity
    00:00 +5°C° 0 mm 2 mps 772 mmHg 73%
    01:00 +5°C° 0 mm 2 mps 772 mmHg 70%
    02:00 +5°C° 0 mm 2 mps 772 mmHg 67%
    03:00 +5°C° 0 mm 1 mps 772 mmHg 64%
    04:00 +4°C° 0 mm 2 mps 772 mmHg 64%
    05:00 +4°C° 0 mm 2 mps 772 mmHg 64%
    06:00 +4°C° 0 mm 2 mps 772 mmHg 64%
    07:00 +5°C° 0 mm 2 mps 772 mmHg 64%
    08:00 +6°C° 0 mm 2 mps 772 mmHg 64%
    09:00 +7°C° 0 mm 3 mps 773 mmHg 64%
    10:00 +9°C° 0 mm 3 mps 772 mmHg 61%
    11:00 +12°C° 0 mm 2 mps 772 mmHg 58%
    12:00 +13°C° 0 mm 2 mps 772 mmHg 55%
    13:00 +14°C° 0 mm 2 mps 772 mmHg 56%
    14:00 +15°C° 0 mm 2 mps 772 mmHg 57%
    15:00 +15°C° 0 mm 2 mps 772 mmHg 58%
    16:00 +14°C° 0 mm 2 mps 772 mmHg 64%
    17:00 +12°C° 0 mm 2 mps 771 mmHg 70%
    18:00 +9°C° 0 mm 2 mps 771 mmHg 76%
    19:00 +9°C° 0 mm 2 mps 771 mmHg 77%
    20:00 +8°C° 0 mm 2 mps 771 mmHg 77%
    21:00 +7°C° 0 mm 3 mps 771 mmHg 78%
    22:00 +7°C° 0 mm 2 mps 771 mmHg 76%
    23:00 +7°C° 0 mm 2 mps 771 mmHg 75%

    Day after tomorrow, 26 February, Tuesday

    Time Temperature Precipitation Wind Pressure Humidity
    00:00 +6°C° 0 mm 2 mps 771 mmHg 73%
    01:00 +6°C° 0 mm 2 mps 771 mmHg 73%
    02:00 +6°C° 0 mm 2 mps 771 mmHg 73%
    03:00 +6°C° 0 mm 2 mps 771 mmHg 73%
    04:00 +6°C° 0 mm 2 mps 771 mmHg 75%
    05:00 +5°C° 0 mm 2 mps 771 mmHg 77%
    06:00 +6°C° 0 mm 1 mps 770 mmHg 79%
    07:00 +7°C° 0 mm 1 mps 771 mmHg 77%
    08:00 +8°C° 0 mm 1 mps 771 mmHg 76%
    09:00 +9°C° 0 mm 1 mps 771 mmHg 74%
    10:00 +10°C° 0 mm 2 mps 771 mmHg 70%
    11:00 +13°C° 0 mm 2 mps 771 mmHg 66%
    12:00 +15°C° 0 mm 2 mps 770 mmHg 61%
    13:00 +14°C° 0 mm 3 mps 770 mmHg 62%
    14:00 +16°C° 0 mm 3 mps 770 mmHg 63%
    15:00 +16°C° 0 mm 3 mps 769 mmHg 64%
    16:00 +13°C° 0 mm 3 mps 769 mmHg 70%
    17:00 +13°C° 0 mm 2 mps 769 mmHg 76%
    18:00 +10°C° 0 mm 2 mps 769 mmHg 83%
    19:00 +9°C° 0 mm 2 mps 768 mmHg 84%
    20:00 +9°C° 0 mm 2 mps 768 mmHg 85%
    21:00 +8°C° 0 mm 3 mps 768 mmHg 86%
    22:00 +8°C° 0 mm 3 mps 768 mmHg 86%
    23:00 +7°C° 0 mm 3 mps 768 mmHg 87%

    27 February, Wednesday

    Time Temperature Precipitation Wind Pressure Humidity
    00:00 +7°C° 0 mm 3 mps 768 mmHg 88%
    01:00 +5°C° 0 mm 3 mps 767 mmHg 89%
    02:00 +5°C° 0 mm 3 mps 767 mmHg 90%
    03:00 +5°C° 0 mm 3 mps 766 mmHg 92%
    04:00 +5°C° 0 mm 3 mps 766 mmHg 93%
    05:00 +5°C° 0 mm 3 mps 765 mmHg 94%
    06:00 +6°C° 0 mm 2 mps 765 mmHg 95%
    07:00 +7°C° 0 mm 3 mps 765 mmHg 93%
    08:00 +8°C° 0 mm 3 mps 765 mmHg 92%
    09:00 +8°C° 0 mm 4 mps 765 mmHg 90%
    10:00 +10°C° 0 mm 4 mps 765 mmHg 85%
    11:00 +12°C° 0 mm 4 mps 765 mmHg 80%
    12:00 +14°C° 0 mm 4 mps 765 mmHg 74%
    13:00 +14°C° 0 mm 4 mps 765 mmHg 72%
    14:00 +14°C° 0 mm 4 mps 764 mmHg 70%
    15:00 +15°C° 0 mm 4 mps 764 mmHg 68%
    16:00 +13°C° 0 mm 4 mps 764 mmHg 74%
    17:00 +12°C° 0 mm 4 mps 764 mmHg 79%
    18:00 +10°C° 0 mm 3 mps 764 mmHg 85%
    19:00 +10°C° 0 mm 3 mps 764 mmHg 87%
    20:00 +9°C° 0 mm 3 mps 764 mmHg 89%
    21:00 +8°C° 0 mm 3 mps 765 mmHg 91%
    22:00 +8°C° 0 mm 3 mps 765 mmHg 92%
    23:00 +8°C° 0 mm 3 mps 765 mmHg 93%

    28 February, Thursday

    Time Temperature Precipitation Wind Pressure Humidity
    00:00 +7°C° 0 mm 3 mps 765 mmHg 93%
    01:00 +7°C° 0 mm 3 mps 765 mmHg 94%
    02:00 +7°C° 0 mm 3 mps 765 mmHg 95%
    03:00 +7°C° 0 mm 2 mps 765 mmHg 96%
    04:00 +7°C° 0 mm 3 mps 765 mmHg 96%
    05:00 +7°C° 0 mm 3 mps 766 mmHg 96%
    06:00 +7°C° 0 mm 3 mps 766 mmHg 96%
    07:00 +8°C° 0 mm 3 mps 766 mmHg 94%
    08:00 +9°C° 0 mm 3 mps 767 mmHg 92%
    09:00 +9°C° 0 mm 3 mps 767 mmHg 89%
    10:00 +10°C° 0 mm 3 mps 767 mmHg 84%
    11:00 +12°C° 0 mm 3 mps 768 mmHg 80%
    12:00 +13°C° 0 mm 4 mps 768 mmHg 75%
    13:00 +13°C° 0 mm 4 mps 768 mmHg 75%
    14:00 +13°C° 0 mm 3 mps 767 mmHg 75%
    15:00 +12°C° 0 mm 3 mps 767 mmHg 75%
    16:00 +12°C° 0 mm 3 mps 767 mmHg 78%
    17:00 +11°C° 0 mm 3 mps 767 mmHg 81%
    18:00 +10°C° 0 mm 2 mps 767 mmHg 84%
    19:00 +9°C° 0 mm 2 mps 768 mmHg 85%
    20:00 +10°C° 0 mm 1 mps 768 mmHg 86%
    21:00 +9°C° 0 mm 1 mps 768 mmHg 87%
    22:00 +9°C° 0 mm 1 mps 768 mmHg 89%
    23:00 +8°C° 0 mm 1 mps 768 mmHg 90%

    1 March, Friday

    Time Temperature Precipitation Wind Pressure Humidity
    00:00 +8°C° 0 mm 1 mps 768 mmHg 91%
    01:00 +7°C° 0 mm 1 mps 767 mmHg 91%
    02:00 +7°C° 0 mm 1 mps 767 mmHg 91%
    03:00 +6°C° 0 mm 1 mps 767 mmHg 91%
    04:00 +6°C° 0 mm 1 mps 767 mmHg 91%
    05:00 +6°C° 0 mm 1 mps 766 mmHg 91%
    06:00 +6°C° 0 mm 1 mps 766 mmHg 91%
    07:00 +7°C° 0 mm 1 mps 766 mmHg 90%
    08:00 +7°C° 0 mm 1 mps 766 mmHg 88%
    09:00 +7°C° 0 mm 2 mps 766 mmHg 86%
    10:00 +9°C° 0 mm 2 mps 766 mmHg 82%
    11:00 +10°C° 0 mm 2 mps 766 mmHg 77%
    12:00 +12°C° 0 mm 3 mps 765 mmHg 72%
    13:00 +12°C° 0 mm 3 mps 765 mmHg 73%
    14:00 +12°C° 0 mm 3 mps 764 mmHg 74%
    15:00 +12°C° 0 mm 3 mps 764 mmHg 75%
    16:00 +11°C° 0 mm 3 mps 763 mmHg 76%
    17:00 +11°C° 0 mm 3 mps 763 mmHg 78%
    18:00 +10°C° 0 mm 3 mps 763 mmHg 80%
    19:00 +9°C° 0 mm 3 mps 763 mmHg 84%
    20:00 +7°C° 0 mm 4 mps 762 mmHg 88%
    21:00 +6°C° 0 mm 4 mps 762 mmHg 92%
    22:00 +5°C° 0 mm 4 mps 762 mmHg 92%
    23:00 +5°C° 0 mm 4 mps 762 mmHg 93%
    Show more